Cleveland, OH

5:02 PM EDT on March 23, 2017 (GMT -0400)
Cleveland-Hopkins International

Weather History for KCLE - September, 2012

Change the Weather History Date:

Sunday, September 30, 2012

  Actual Average Record
Temperature  
Mean Temperature 55 °F 59 °F  
Max Temperature 63 °F 68 °F 86 °F (1881)
Min Temperature 46 °F 51 °F 35 °F (1963)
Degree Days  
Heating Degree Days 10 7  
Month to date heating degree days 139 91  
Since 1 July heating degree days 139 103  
Cooling Degree Days 0 1  
Month to date cooling degree days 81 89  
Year to date cooling degree days 1086 804  
Growing Degree Days 6 (Base 50)    
Moisture  
Dew Point 46 °F    
Average Humidity 75    
Maximum Humidity 93    
Minimum Humidity 56    
Precipitation  
Precipitation 0.01 in 0.12 in 1.35 in (1986)
Month to date precipitation 7.56 3.81  
Year to date precipitation 29.53 29.35  
Snow  
Snow 0.00 in 0.00 in - ()
Month to date snowfall 0.0 0.0  
Since 1 July snowfall 0.0 0.0  
Since 1 September snowfall 0.0 0.0  
Snow Depth 0.00 in    
Sea Level Pressure  
Sea Level Pressure 29.93 in    
Wind  
Wind Speed 5 mph (ENE)    
Max Wind Speed 17 mph    
Max Gust Speed 21 mph    
Visibility 10 miles    
Events Rain    
T = Trace of Precipitation, MM = Missing Value Source: NWS Daily Summary

Daily Weather History Graph

Daily Weather History Graph

Search for Another Location

Airport or City:

Trip Planner

Search our weather history database for the weather conditions in past years. The results will help you decide how hot, cold, wet, or windy it might be!

Date:

Astronomy

Sep. 30, 2012 Rise Set
Actual Time 7:23 AM EDT 7:10 PM EDT
Civil Twilight 6:56 AM EDT 7:37 PM EDT
Nautical Twilight 6:23 AM EDT 8:09 PM EDT
Astronomical Twilight 5:51 AM EDT 8:42 PM EDT
Moon 7:11 PM EDT (9/30) 7:54 AM EDT (9/30)
Length of Visible Light 12h 41m
Length of Day
11h 46m
Full, 100% of the Moon is Illuminated
Sep 30
Full
Oct 8
Last Quarter
Oct 15
New
Oct 21
First Quarter
Oct 29
Full

Hourly Weather History & Observations

Time (EDT) Temp. Dew Point Humidity Pressure Visibility Wind Dir Wind Speed Gust Speed Precip Events Conditions
12:51 AM 52.0 °F 46.0 °F 80% 29.94 in 10.0 mi SE 4.6 mph - N/A   Overcast
1:51 AM 54.0 °F 46.0 °F 75% 29.94 in 10.0 mi East 4.6 mph - N/A   Overcast
2:51 AM 52.0 °F 45.0 °F 77% 29.92 in 10.0 mi ESE 4.6 mph - N/A   Mostly Cloudy
3:51 AM 51.1 °F 45.0 °F 80% 29.90 in 10.0 mi South 4.6 mph - N/A   Mostly Cloudy
4:51 AM 52.0 °F 45.0 °F 77% 29.90 in 10.0 mi SSE 3.5 mph - N/A   Mostly Cloudy
5:51 AM 51.1 °F 44.1 °F 77% 29.89 in 10.0 mi SE 3.5 mph - N/A   Scattered Clouds
6:51 AM 50.0 °F 43.0 °F 77% 29.88 in 10.0 mi Calm Calm - N/A   Scattered Clouds
7:51 AM 50.0 °F 44.1 °F 80% 29.90 in 10.0 mi Calm Calm - N/A   Mostly Cloudy
8:51 AM 52.0 °F 45.0 °F 77% 29.90 in 10.0 mi SE 4.6 mph - N/A   Scattered Clouds
9:51 AM 57.0 °F 46.0 °F 67% 29.91 in 10.0 mi East 6.9 mph - N/A   Scattered Clouds
10:51 AM 57.0 °F 46.0 °F 67% 29.94 in 10.0 mi North 10.4 mph - N/A   Overcast
11:51 AM 55.0 °F 48.9 °F 80% 29.94 in 10.0 mi NE 4.6 mph - 0.01 in Rain Light Rain
12:51 PM 59.0 °F 48.0 °F 67% 29.95 in 10.0 mi NE 8.1 mph - 0.00 in   Scattered Clouds
1:51 PM 62.1 °F 46.0 °F 56% 29.94 in 10.0 mi Variable 6.9 mph - N/A   Mostly Cloudy
2:51 PM 62.1 °F 48.0 °F 60% 29.92 in 10.0 mi North 12.7 mph - N/A   Scattered Clouds
3:51 PM 62.1 °F 46.9 °F 58% 29.92 in 10.0 mi North 10.4 mph - N/A   Scattered Clouds
4:51 PM 61.0 °F 46.9 °F 60% 29.92 in 10.0 mi North 9.2 mph - N/A   Scattered Clouds
5:51 PM 60.1 °F 46.0 °F 60% 29.93 in 10.0 mi North 10.4 mph - N/A   Scattered Clouds
6:51 PM 57.9 °F 46.9 °F 67% 29.94 in 10.0 mi NNE 8.1 mph - N/A   Scattered Clouds
7:51 PM 55.0 °F 46.9 °F 74% 29.96 in 10.0 mi NNE 5.8 mph - N/A   Partly Cloudy
8:51 PM 54.0 °F 46.9 °F 77% 29.96 in 10.0 mi Calm Calm - N/A   Clear
9:51 PM 50.0 °F 45.0 °F 83% 29.96 in 10.0 mi Calm Calm - N/A   Clear
10:51 PM 48.9 °F 45.0 °F 86% 29.97 in 10.0 mi Calm Calm - N/A   Clear
11:51 PM 46.9 °F 45.0 °F 93% 29.97 in 10.0 mi SW 3.5 mph - N/A   Clear